Terug naar catalogus

BSAT-3A

ActiefCommunicatieGEO
NORAD 32019·PAYLOAD·🇯🇵 Japan

Gelanceerd Aug 14, 2007 vanaf Guiana Space Centre

Loading…

TLE

VersSource: Space-Track

Epoch: Sep 14, 2026, 13:27 UTC

1 32019U 07036B   26257.56061737  .00000070  00000-0  00000-0 0  9995
2 32019   1.8872  86.4921 0005611 110.6229 222.9393  0.99139712 51352

Volg BSAT-3A in realtime met AllMySat

Download on the App Store